Regional Weather Roundup
Issued by NWS

Home | Current Version | Previous Version | Text Only | Print | Product List | Glossary On
Versions: 1 2 3 4 5 6 7 8 9 10 11 12 13 14 15 16 17 18 19 20 21 22 23 24 25 26 27 28 29 30 31 32 33 34 35 36 37 38 39 40 41 42 43 44 45 46 47 48 49 50
000
ASUS43 KTOP 300359
RWRKS

WEATHER ROUNDUP FOR KANSAS
NATIONAL WEATHER SERVICE GOODLAND KS
1100 PM CDT SAT AUG 29 2015

NOTE:  "FAIR" INDICATES FEW OR NO CLOUDS BELOW 12,000 FEET WITH NO
SIGNIFICANT WEATHER AND/OR OBSTRUCTIONS TO VISIBILITY.

KSZ001>006-013>018-027>032-041>047-300500-
NORTHWEST KANSAS

CITY           SKY/WX    TMP DP  RH WIND       PRES   REMARKS
GOODLAND       CLEAR     66  49  54 S10       30.13S
HAYS           CLEAR     64  54  68 SE9       30.08R
HILL CITY      CLEAR     64  55  72 E3        30.08R
RUSSELL        CLEAR     64  62  93 SE9       30.06R
$$

KSZ061>065-074>080-084>089-300500-
SOUTHWEST KANSAS

CITY           SKY/WX    TMP DP  RH WIND       PRES   REMARKS
DODGE CITY     CLEAR     62  52  69 SE5       30.10R
ELKHART          N/A     66  52  61 S8          N/A
GARDEN CITY    CLEAR     67  57  70 S3        30.11R
GREAT BEND     CLEAR     64  59  82 E7        30.08R
LIBERAL        CLEAR     70  52  52 CALM      30.12R
PRATT          CLEAR     63  61  94 CALM      30.09S
$$

KSZ066>073-081>083-090>101-300500-
SOUTHEAST KANSAS

CITY           SKY/WX    TMP DP  RH WIND       PRES   REMARKS
CHANUTE        CLEAR     68  66  93 N6        30.02S
COFFEYVILLE    CLEAR     69  66  90 N7        30.01R
HUTCHINSON     CLEAR     62  58  86 NE3       30.07R
NEWTON         CLEAR     64  55  72 NE5       30.08S
PARSONS        CLEAR     68  66  93 CALM      30.03R
WICHITA INTL   CLEAR     67  61  81 N7        30.04S
WICHITA JABRA  CLEAR     62  60  93 N6        30.05S
$$

KSZ007>012-019>026-033>040-048>060-102>105-300500-
NORTHEAST KANSAS

CITY           SKY/WX    TMP DP  RH WIND       PRES   REMARKS
CONCORDIA      CLEAR     60  59  96 S5        30.07S
EMPORIA        CLEAR     63  62  97 E3        30.05R
LAWRENCE       PTCLDY    65  63  93 NW3       30.05R
MANHATTAN      CLEAR     64  62  93 N3        30.06R
OLATHE IND     MOCLDY    68  67  96 CALM      30.05S
OLATHE EXE     CLOUDY    70  67  90 NE8       30.04R
SALINA         CLEAR     68  62  81 E3        30.06S
TOPEKA BILLARD CLOUDY    68  65  90 N3        30.06R
TOPEKA FORBES  MOCLDY    68  64  87 N5        30.06R
$$


USA.gov is the U.S. government's official web portal to all federal, state and local government web resources and services.